Location: 81360 Arifat, France
(43.7204°N, 2.3408°E)
Time: 11:56:27
(UTC+02:00)

N. Korean satellite - Pass Details

Date: 06 October 2021
Orbit: 450 x 495 km, 97.3° (Epoch: 15 October)

Event Time Altitude Azimuth Distance (km) Brightness Sun altitude
Rises 06:37:55 0° 21° (NNE) 2,564 10.6 -14.6°
Reaches altitude 10° 06:40:07 10° 31° (NNE) 1,685 9.8 -14.2°
Maximum altitude 06:43:27 33° 97° (E) 839 8.5 -13.6°
Drops below altitude 10° 06:46:46 10° 163° (SSE) 1,685 9.4 -13.0°
Sets 06:48:58 0° 173° (S) 2,565 10.3 -12.6°
